Home   Weather   Buffalo   Past weeks

Flag for USA Past Weather in Buffalo, New York, USA — Yesterday and Last 2 Weeks

Now
55 °F

Passing clouds.


Feels Like: 52 °F
Forecast: 58 / 67 °F
Wind: 12 mph from East

Location: Greater Buffalo International Airport

Current Time: Oct 1, 2016 at 12:55:45 AM

Latest Report: Sep 30, 2016 at 11:54 PM


Visibility: 10 mi

Pressure: 30.20 "Hg

Humidity: 83%

Dew Point: 50 °F

Location of BuffaloLocation

Past Weather in Buffalo — Graph

°F

Buffalo Temperature Yesterday

Maximum temperature yesterday: 66 °F (at 2:54 PM)
Minimum temperature yesterday: 55 °F (at 9:54 PM)
Average temperature yesterday: 59 °F

High & Low Weather Summary for the Past Weeks

 TemperatureHumidityPressure
High81 °F (Sep 21, 2:54 PM)94% (Sep 19, 1:54 AM)30.32 "Hg (Sep 19, 1:54 AM)
Low44 °F (Sep 25, 5:54 AM)30% (Sep 27, 3:54 PM)29.79 "Hg (Sep 27, 3:54 PM)
Average64 °F69%30.09 "Hg
* Reported Sep 15 11:54 PM — Sep 30 11:54 PM, Buffalo, Weather by CustomWeather, © 2016

Note: Actual official high and low records may vary slightly from our data, if they occured in-between our weather recording intervals... More about our weather records

Advertising

Buffalo Weather History for the Previous 24 Hours

Scroll right to see more
 ConditionsComfort  
Time TempWeatherWind HumidityBarometerVisibility
11:54 PM
Fri, Sep 30
55 °FPassing clouds.12 mph83%30.20 "Hg10 mi
10:54 PM55 °FPassing clouds.12 mph83%30.21 "Hg10 mi
9:54 PM55 °FPassing clouds.16 mph83%30.23 "Hg10 mi
8:54 PM56 °FPassing clouds.13 mph81%30.24 "Hg10 mi
7:54 PM57 °FMostly cloudy.16 mph78%30.23 "Hg10 mi
6:54 PM62 °FMostly cloudy.18 mph62%30.22 "Hg10 mi
5:54 PM63 °FPartly sunny.13 mph60%30.22 "Hg10 mi
4:54 PM65 °FPartly sunny.10 mph59%30.21 "Hg10 mi
3:54 PM65 °FPartly sunny.17 mph59%30.21 "Hg10 mi
2:54 PM66 °FPartly sunny.16 mph56%30.23 "Hg10 mi
1:54 PM65 °FPartly sunny.16 mph61%30.24 "Hg10 mi
12:54 PM63 °FPartly sunny.16 mph63%30.27 "Hg10 mi
11:54 AM61 °FMostly cloudy.9 mph65%30.28 "Hg10 mi
10:54 AM59 °FPartly sunny.12 mph69%30.29 "Hg10 mi
9:54 AM58 °FPartly sunny.9 mph70%30.29 "Hg10 mi
8:54 AM57 °FPartly sunny.13 mph72%30.30 "Hg10 mi
7:54 AM57 °FMostly cloudy.13 mph72%30.29 "Hg10 mi
6:54 AM57 °FOvercast.14 mph74%30.28 "Hg10 mi
5:54 AM57 °FOvercast.12 mph74%30.29 "Hg10 mi
4:54 AM57 °FOvercast.13 mph72%30.29 "Hg10 mi
3:54 AM57 °FOvercast.13 mph72%30.29 "Hg10 mi
2:54 AM57 °FOvercast.10 mph74%30.30 "Hg10 mi
1:54 AM57 °FOvercast.13 mph74%30.30 "Hg10 mi
12:54 AM57 °FMostly cloudy.8 mph74%30.31 "Hg10 mi
Weather by CustomWeather, © 2016

See weather overviewHow to use our weather pages